Etusivu
METAR-TAF:

METAR-TAF

Lentoasemat :

Stennis International Airport

Bay St. Louis, Mississippi, Yhdysvallat

Leveyspiiri: 30-22-04N, Pituuspiiri: 089-27-17W, korkeus merenpinnasta: 7 m

Tämänhetkinen sää

Tämä raportti tehtiin 40 minuuttia sitten, kello 01.50 UTC
tyyntä
Lämpötila 7°C
Kosteus 100%
Ilmanpaine 1012 hPa
Näkyvyys: 11.3 km
Pilvistä 5000 ft:n korkeudessa

METAR: KHSA 190150Z 00000KT 7SM OVC050 07/07 A2989

Aika: 20:30 (02:30 UTC)


TAF: puuttuu

Säähavainnot ja -ennusteet yli 4000 lentoasemalta (METAR- ja TAF-raportit).

Käytössä olevat sääasemat on merkitty karttaan keltaisilla ja punaisilla pisteillä.

Aseta hiiri pisteen päälle nähdäksesi sääaseman nimen.

Klikkaa sitten nähdäksesi säähavainnot ja -ennusteet.

Kartan vaihtaminen: klikkaa mustalla rastilla varustettuja vihreitä pisteitä, niin voit zoomata sisään; viivalla varustettua vihreää pistettä, niin voit zoomata ulos tai vihreitä nuolia, niin pääset viereisille kartoille.


METAR-TAF: